Theta_e
295 294 294 293 293 292 292 292 293 293 294 294 295 296 296 297 298 299 299 300 302 303
293 293 292 293 293 292 292 292 292 293 292 293 294 294 294 295 295 295 296 296 298 299
292 292 292 292 290 291 291 291 291 291 291 292 293 292 293 292 292 292 292 292 293 295
292 292 292 291 290 291 290 290 290 290 291 291 291 292 291 290 290 289 289 290 290 289
292 292 291 290 290 291 290 289 289 290 290 290 289 290 290 289 289 288 287 287 287 287
292 292 291 291 291 290 290 290 289 290 289 288 288 288 290 290 290 289 288 288 287 286
290 290 289 290 290 290 289 289 289 290 289 289 287 285 287 289 288 288 288 288 288 287
289 289 289 289 289 289 288 288 288 288 288 287 285 284 284 288 287 287 286 286 286 287
288 287 287 287 287 287 286 286 286 286 285 284 283 282 284 286 285 284 284 283 284 285
286 285 285 285 285 284 284 284 283 283 284 282 281 280 282 284 285 284 283 282 281 282
284 283 284 283 282 283 283 282 281 281 281 282 280 280 280 283 285 284 283 282 280 280
282 281 282 281 281 282 282 282 281 281 280 279 279 279 279 281 284 283 282 282 280 278
282 281 281 281 281 282 283 282 283 281 281 280 279 279 279 279 279 280 280 280 280 277
283 282 282 282 282 282 282 282 282 282 282 281 280 279 278 278 277 278 278 277 277 278
Wind_Speed
11 7 7 8 7 7 7 8 12 11 11 11 11 11 11 9 8 10 9 12 10 8
9 9 9 10 9 5 8 9 12 11 11 13 12 11 11 8 9 10 9 10 11 9
9 9 9 9 10 11 10 11 12 13 13 12 12 12 11 9 10 10 9 8 11 10
8 9 9 10 10 11 11 12 13 13 13 13 14 12 11 10 11 11 11 11 11 13
7 8 8 9 9 10 10 10 11 11 11 12 13 13 11 10 10 11 12 12 12 13
8 8 9 9 8 8 9 9 9 10 11 14 14 14 12 11 12 11 11 11 12 13
8 9 9 10 10 10 11 12 11 12 14 14 15 16 15 13 13 13 13 13 13 15
8 9 9 10 10 10 11 11 12 12 14 15 16 13 15 12 13 13 14 15 15 15
8 9 10 10 9 10 11 12 12 13 13 16 13 24 19 15 12 14 15 16 16 16
8 9 9 10 10 11 11 12 12 13 13 15 18 27 23 17 11 12 13 16 16 15
8 8 8 9 9 9 8 10 10 11 13 13 15 26 25 18 12 10 13 14 17 17
8 8 8 9 9 9 8 9 9 10 12 13 13 26 27 18 10 10 11 12 14 18
9 8 8 9 9 8 7 8 7 9 11 14 13 24 26 21 11 13 10 12 14 24
8 8 7 8 7 7 7 6 7 8 9 12 14 16 26 26 13 11 11 11 11 12
Wind_Direction
15 9 359 15 10 4 1 352 355 348 352 1 344 339 336 334 329 328 323 316 316 310
22 20 13 16 17 4 24 2 2 357 355 5 355 348 349 351 347 347 335 330 333 325
31 31 26 24 21 17 28 15 7 9 4 1 2 4 4 1 4 0 359 359 345 351
35 35 36 30 27 19 24 20 14 9 4 7 10 11 15 12 13 17 12 4 8 2
42 42 42 41 33 24 23 25 15 9 11 17 16 9 17 21 20 24 21 12 9 7
38 37 35 39 38 36 28 38 27 14 23 24 22 8 6 23 29 30 28 19 17 9
40 37 33 32 30 30 27 24 20 23 23 29 23 14 360 20 24 26 22 18 16 19
44 44 39 37 33 35 32 27 24 25 27 21 29 14 4 12 25 24 21 21 16 23
49 46 40 38 37 39 35 33 22 26 31 27 26 9 12 10 24 27 24 21 14 16
55 51 43 40 41 43 39 37 33 25 23 30 22 15 7 360 28 32 28 28 15 16
55 55 52 56 47 47 49 46 40 34 27 29 23 19 12 355 40 24 32 32 25 18
63 53 54 54 49 41 45 46 47 38 38 26 30 20 21 10 17 22 33 28 36 21
79 66 55 53 52 48 46 44 41 49 39 36 26 22 25 21 11 19 17 27 20 23
80 77 65 68 52 52 50 50 45 46 47 34 32 20 23 26 23 6 18 17 13 13